Location: Boiro
(42.6475°N, 8.8834°W)
Time: 23:33:29
(UTC+02:00)

Courier 1B Rocket - Visible Passes

Search period start: 27 May 2022 00:00
Search period end: 06 June 2022 00:00
Orbit: 920 x 1202 km, 28.2° (Epoch: 27 May)

Date Brightness Start Highest point End Pass type
(mag) Time Alt. Az. Time Alt. Az. Time Alt. Az.
27 May 6.4 04:33:57 17° SSE 04:33:57 17° SSE 04:36:13 10° SE visible
27 May 6.5 06:20:52 10° SW 06:24:01 14° SSW 06:27:10 10° SSE visible
28 May 6.3 05:23:22 17° SSW 05:23:22 17° SSW 05:27:15 10° SSE visible
29 May 6.9 04:26:33 11° SSE 04:26:33 11° SSE 04:27:00 10° SE visible
29 May 6.6 06:13:35 10° SW 06:14:53 11° SSW 06:16:10 10° S visible
30 May 6.7 05:16:22 12° S 05:16:22 12° S 05:17:23 10° SSE visible
31 May 7.0 00:24:13 10° SSW 00:24:44 11° SSW 00:24:44 11° SSW visible
31 May 6.6 23:24:05 10° SSW 23:27:47 15° SSE 23:28:26 15° SSE visible
02 Jun 6.4 00:14:19 10° SW 00:18:21 20° S 00:18:21 20° S visible
02 Jun 6.5 23:13:44 10° SSW 23:18:36 19° SSE 23:21:38 15° SE visible
03 Jun 6.7 01:05:43 10° SW 01:08:02 18° SW 01:08:02 18° SW visible
04 Jun 6.2 00:04:43 10° SW 00:10:20 24° S 00:11:06 23° SSE visible
04 Jun 6.4 23:03:53 10° SW 23:09:26 23° S 23:14:02 12° SE visible
05 Jun 6.4 00:56:29 10° SW 01:00:25 22° SSW 01:00:25 22° SSW visible
